, AK

(GMT )
Northway

Weather History for PAOR - October, 2012

Change the Weather History Date:

Sunday, October 21, 2012

  Actual Average Record
Temperature  
Mean Temperature 4 °F -  
Max Temperature 14 °F 25 °F 46 °F (2002)
Min Temperature -7 °F 9 °F -24 °F (1958)
Degree Days  
Heating Degree Days 62    
Moisture  
Dew Point -4 °F    
Average Humidity 84    
Maximum Humidity 92    
Minimum Humidity 75    
Precipitation  
Precipitation 0.00 in - - ()
Snow  
Snow 0.00 in - - ()
Snow Depth 3.00 in    
Sea Level Pressure  
Sea Level Pressure 30.57 in    
Wind  
Wind Speed 0 mph (NE)    
Max Wind Speed 4 mph    
Max Gust Speed -    
Visibility 5 miles    
Events Fog    
Averages and records for this station are not official NWS values.
T = Trace of Precipitation, MM = Missing Value Source: NWS Daily Summary

Daily Weather History Graph

Daily Weather History Graph

Search for Another Location

Airport or City:

Trip Planner

Search our weather history database for the weather conditions in past years. The results will help you decide how hot, cold, wet, or windy it might be!

Date:

Astronomy

Oct. 21, 2012 Rise Set
Actual Time 8:33 AM AKDT 5:49 PM AKDT
Civil Twilight 7:45 AM AKDT 6:37 PM AKDT
Nautical Twilight 6:52 AM AKDT 7:30 PM AKDT
Astronomical Twilight 5:59 AM AKDT 8:23 PM AKDT
Moon 3:38 PM AKDT (10/21) 11:22 PM AKDT (10/21)
Length of Visible Light 10h 51m
Length of Day
9h 15m
Waxing Crescent, 47% of the Moon is Illuminated
Oct 21
Waxing Crescent
Oct 21
First Quarter
Oct 29
Full
Nov 6
Last Quarter
Nov 13
New

Hourly Weather History & Observations

Time (AKDT) Temp. Windchill Dew Point Humidity Pressure Visibility Wind Dir Wind Speed Gust Speed Precip Events Conditions
12:53 AM -2.9 °F -11.2 °F -7.1 °F 82% 30.65 in 10.0 mi NE 3.5 mph - N/A   Clear
1:53 AM -4.0 °F - -7.6 °F 85% 30.48 in 10.0 mi Calm Calm - N/A   Partly Cloudy
2:21 AM -2.2 °F - -5.8 °F 85% 30.48 in 8.0 mi Calm Calm - N/A   Mostly Cloudy
2:25 AM -2.2 °F - -7.6 °F 78% 30.48 in 1.0 mi Calm Calm - N/A   Mostly Cloudy
2:27 AM -2.2 °F - -5.8 °F 85% 30.49 in 0.8 mi Calm Calm - N/A   Mostly Cloudy
2:31 AM -0.4 °F - -4.0 °F 85% 30.49 in 0.2 mi Calm Calm - N/A Fog Light Freezing Fog
2:53 AM -0.0 °F - -2.0 °F 91% 30.65 in 0.2 mi Calm Calm - N/A Fog Light Freezing Fog
3:53 AM -2.9 °F - -5.1 °F 90% 30.67 in 0.2 mi Calm Calm - N/A Fog Light Freezing Fog
4:03 AM -2.2 °F - -4.0 °F 92% 30.50 in 1.2 mi Calm Calm - N/A   Overcast
4:08 AM -2.2 °F - -4.0 °F 92% 30.50 in 2.0 mi Calm Calm - N/A   Overcast
4:12 AM -2.2 °F - -5.8 °F 85% 30.50 in 3.0 mi Calm Calm - N/A   Overcast
4:37 AM -2.2 °F - -5.8 °F 85% 30.50 in 1.5 mi Calm Calm - N/A   Mostly Cloudy
4:40 AM -2.2 °F - -5.8 °F 85% 30.50 in 0.8 mi Calm Calm - N/A   Overcast
4:53 AM -2.0 °F - -4.0 °F 91% 30.68 in 0.5 mi Calm Calm - N/A Fog Light Freezing Fog
5:53 AM -2.0 °F - -5.1 °F 87% 30.69 in 0.2 mi Calm Calm - N/A Fog Light Freezing Fog
6:37 AM -2.2 °F - -7.6 °F 78% 30.51 in 1.0 mi Calm Calm - N/A   Mist
6:48 AM -4.0 °F - -7.6 °F 85% 30.51 in 0.8 mi Calm Calm - N/A   Mist
6:53 AM -2.9 °F - -7.1 °F 82% 30.69 in 0.8 mi Calm Calm - N/A   Mist
7:03 AM -4.0 °F - -7.6 °F 85% 30.51 in 1.0 mi Calm Calm - N/A   Mist
7:07 AM -4.0 °F - -9.4 °F 78% 30.51 in 2.5 mi Calm Calm - N/A   Mostly Cloudy
7:09 AM -4.0 °F - -9.4 °F 78% 30.51 in 5.0 mi Calm Calm - N/A   Mostly Cloudy
7:26 AM -2.2 °F - -7.6 °F 78% 30.51 in 2.5 mi Calm Calm - N/A   Mostly Cloudy
7:38 AM -2.2 °F - -5.8 °F 85% 30.51 in 1.5 mi Calm Calm - N/A   Overcast
7:43 AM -2.2 °F - -5.8 °F 85% 30.51 in 0.8 mi Calm Calm - N/A   Overcast
8:53 AM -2.9 °F - -5.1 °F 90% 30.71 in 0.2 mi Calm Calm - N/A Fog Light Freezing Fog
9:11 AM -2.2 °F - -5.8 °F 85% 30.52 in 1.0 mi Calm Calm - N/A   Overcast
9:20 AM -2.2 °F - -5.8 °F 85% 30.52 in 2.5 mi Calm Calm - N/A   Overcast
9:22 AM -2.2 °F - -5.8 °F 85% 30.52 in 4.0 mi Calm Calm - N/A   Overcast
9:45 AM -2.2 °F - -5.8 °F 85% 30.52 in 1.8 mi Calm Calm - N/A   Overcast
9:53 AM -0.9 °F - -5.1 °F 83% 30.71 in 0.5 mi Calm Calm - N/A Fog Light Freezing Fog
10:00 AM -0.4 °F - -4.0 °F 85% 30.52 in 1.2 mi Calm Calm - N/A   Overcast
10:08 AM -0.4 °F - -4.0 °F 85% 30.52 in 3.0 mi Calm Calm - N/A   Overcast
10:24 AM -0.4 °F - -4.0 °F 85% 30.52 in 10.0 mi Calm Calm - N/A   Mostly Cloudy
10:47 AM -0.4 °F - -2.2 °F 92% 30.52 in 10.0 mi Calm Calm - N/A   Mostly Cloudy
10:53 AM 1.0 °F - -2.0 °F 87% 30.72 in 10.0 mi Calm Calm - N/A   Mostly Cloudy
11:53 AM 5.0 °F - 1.9 °F 87% 30.71 in 9.0 mi Calm Calm - N/A   Scattered Clouds
12:23 PM 6.8 °F - 1.4 °F 79% 30.50 in 10.0 mi Calm Calm - N/A   Scattered Clouds
12:53 PM 7.0 °F - 3.0 °F 84% 30.69 in 10.0 mi Calm Calm - N/A   Scattered Clouds
1:53 PM 10.0 °F - 6.1 °F 84% 30.67 in 10.0 mi Calm Calm - N/A   Scattered Clouds
2:53 PM 12.9 °F - 8.1 °F 81% 30.64 in 10.0 mi Calm Calm - N/A   Scattered Clouds
3:53 PM 14.0 °F - 9.0 °F 80% 30.62 in 10.0 mi Calm Calm - N/A   Scattered Clouds
4:53 PM 14.0 °F - 9.0 °F 80% 30.62 in 10.0 mi Calm Calm - N/A   Scattered Clouds
5:53 PM 8.1 °F - 3.9 °F 83% 30.63 in 10.0 mi Calm Calm - N/A   Partly Cloudy
6:53 PM 3.0 °F - -0.9 °F 84% 30.63 in 10.0 mi Calm Calm - N/A   Partly Cloudy
7:53 PM -0.0 °F - -5.1 °F 79% 30.62 in 10.0 mi Calm Calm - N/A   Partly Cloudy
8:53 PM -2.9 °F - -9.0 °F 75% 30.63 in 10.0 mi Calm Calm - N/A   Partly Cloudy
9:53 PM -5.1 °F - -11.0 °F 76% 30.62 in 10.0 mi Calm Calm - N/A   Partly Cloudy
10:53 PM -7.1 °F - -11.9 °F 79% 30.61 in 10.0 mi Calm Calm - N/A   Partly Cloudy
11:53 PM -7.1 °F - -13.0 °F 75% 30.60 in 10.0 mi Calm Calm - N/A   Partly Cloudy